Tracking 27423 objects as of 9-Jun-2023
HD Live streaming from Space Station
objects crossing your sky now

LEMUR-2-SUSURRUS

Track LEMUR-2-SUSURRUS now!
10-day predictions
LEMUR-2-SUSURRUS is classified as:


NORAD ID: 46502
Int'l Code: 2020-068S
Perigee: 515.8 km
Apogee: 531.3 km
Inclination: 97.8 °
Period: 95.0 minutes
Semi major axis: 6894 km
RCS: Unknown
Launch date: September 28, 2020
Source: United States (US)
Launch site: PLESETSK MISSILE AND SPACE COMPLEX (PKMTR)
Your satellite tracking list
Your tracking list is empty




NASA's NSSDC Master Catalog

Two Line Element Set (TLE):
1 46502U 20068S   23159.64160710  .00017751  00000-0  91179-3 0  9999
2 46502  97.7571 108.5504 0011182 146.6969 213.4969 15.16503964147840
Source of the keplerian elements: AFSPC